GW1261 Weather Reports


time (UTC)temp
C
wind
direction
speed
KPH
gust
KPH
rain 1hr
cm
rain 24hr
cm
rain mn
cm
humidity
%
barometer
mb
20260508010538 23 254 0.0 1.6 0.00 0.00 0.00 97 979.0
20260508010035 23 262 0.0 0.0 0.00 0.00 0.00 98 979.4
20260508005531 23 262 0.0 1.6 0.00 0.00 0.00 98 979.2
20260508005028 23 263 0.0 0.0 0.00 0.00 0.00 98 979.1
20260508004524 23 262 0.0 0.0 0.00 0.00 0.00 98 979.0
20260508004021 23 256 0.0 0.0 0.00 0.00 0.00 98 979.2
20260508003518 23 256 0.0 0.0 0.00 0.00 0.00 98 978.8
20260508003015 23 256 0.0 0.0 0.00 0.00 0.00 98 979.0
20260508002511 23 256 0.0 0.0 0.00 0.00 0.00 98 978.9
20260508002009 23 262 0.0 0.0 0.00 0.00 0.00 99 979.0
20260508001504 23 262 0.0 0.0 0.00 0.00 0.00 98 978.9
20260508001001 23 247 0.0 0.0 0.00 0.00 0.00 99 978.7
20260508000457 22 247 0.0 0.0 0.00 0.00 0.00 99 979.0
20260507235954 22 247 0.0 0.0 0.00 0.00 0.00 99 978.9
20260507235450 22 247 0.0 0.0 0.00 0.00 0.00 99 978.7
20260507234948 22 235 0.0 0.0 0.00 0.00 0.00 99 978.8
20260507234444 22 235 0.0 0.0 0.00 0.00 0.00 99 978.6
20260507233941 22 235 0.0 0.0 0.00 0.00 0.00 99 978.6
20260507233438 22 235 0.0 0.0 0.00 0.00 0.00 98 978.5
20260507232937 22 235 0.0 0.0 0.00 0.00 0.00 99 978.5
20260507232432 22 235 0.0 0.0 0.00 0.00 0.00 98 978.5
20260507231930 22 235 0.0 0.0 0.00 0.00 0.00 98 978.3
20260507231426 22 244 0.0 0.0 0.00 0.00 0.00 98 978.2
20260507230923 22 245 0.0 0.0 0.00 0.00 0.00 98 978.3
20260507230420 22 245 0.0 0.0 0.00 0.00 0.00 99 978.1
20260507225920 22 245 0.0 0.0 0.00 0.00 0.00 99 978.0
20260507225417 22 245 0.0 0.0 0.00 0.00 0.00 98 977.9
20260507224913 22 245 0.0 0.0 0.00 0.00 0.00 98 978.2
20260507224409 22 245 0.0 0.0 0.00 0.00 0.00 98 978.1
20260507223906 22 244 0.0 0.0 0.00 0.00 0.00 98 977.9
20260507223402 22 235 0.0 0.0 0.00 0.00 0.00 98 978.1
20260507222859 22 224 0.0 0.0 0.00 0.00 0.00 98 977.9
20260507222355 22 217 0.0 0.0 0.00 0.00 0.00 98 978.1
20260507221853 22 217 0.0 0.0 0.00 0.00 0.00 97 977.8
20260507221349 22 217 0.0 0.0 0.00 0.00 0.00 97 977.9
20260507220845 22 234 0.0 0.0 0.00 0.00 0.00 97 977.7
20260507220343 22 234 0.0 0.0 0.00 0.00 0.00 97 977.7
20260507215839 22 234 0.0 0.0 0.00 0.00 0.00 97 977.5
20260507215336 22 234 0.0 0.0 0.00 0.00 0.00 97 977.8
20260507214834 22 234 0.0 0.0 0.00 0.00 0.00 97 977.8
20260507214331 22 234 0.0 0.0 0.00 0.00 0.00 96 977.7
20260507213826 22 234 0.0 1.6 0.00 0.00 0.00 96 977.8
20260507213323 22 50 4.8 4.8 0.00 0.00 0.00 96 977.6
20260507212820 22 40 4.8 9.7 0.00 0.00 0.00 96 977.9
20260507212316 22 127 4.8 8.0 0.00 0.00 0.00 97 977.3
20260507211812 22 79 1.6 9.7 0.00 0.00 0.00 97 977.8
20260507211309 22 52 4.8 9.7 0.00 0.00 0.00 97 977.6
20260507210806 22 46 6.4 11.3 0.00 0.00 0.00 98 977.7
20260507210303 22 49 4.8 9.7 0.00 0.00 0.00 97 977.7
20260507205759 22 60 6.4 8.0 0.00 0.00 0.00 98 977.6
20260507205257 22 138 1.6 11.3 0.00 0.00 0.00 98 977.7
20260507204752 22 21 1.6 4.8 0.00 0.00 0.00 98 977.5
20260507204250 22 56 4.8 4.8 0.00 0.00 0.00 98 977.5
20260507203748 22 347 4.8 8.0 0.00 0.00 0.00 99 977.7
20260507203245 22 67 3.2 4.8 0.00 0.00 0.00 99 977.6
20260507202741 22 104 0.0 4.8 0.00 0.00 0.00 99 977.7
20260507202237 22 32 4.8 9.7 0.00 0.00 0.00 99 977.6
20260507201732 22 64 1.6 12.9 0.00 0.00 0.00 99 977.3
20260507201230 22 62 1.6 9.7 0.00 0.00 0.00 99 977.5
20260507200726 22 60 0.0 11.3 0.00 0.00 0.00 99 977.5
20260507200222 22 101 3.2 11.3 0.00 0.00 0.00 99 977.5
20260507195718 22 77 4.8 12.9 0.00 0.00 0.00 99 977.3
20260507195216 22 81 1.6 9.7 0.00 0.00 0.00 99 977.3
20260507194713 22 83 4.8 11.3 0.00 0.00 0.00 99 977.3
20260507194209 22 139 1.6 12.9 0.00 0.00 0.00 99 977.6
20260507193705 22 95 4.8 9.7 0.00 0.00 0.00 99 977.5
20260507193202 22 31 4.8 9.7 0.00 0.00 0.00 98 977.3
20260507192658 22 38 1.6 8.0 0.00 0.00 0.00 98 977.5
20260507192155 22 41 11.3 14.5 0.00 0.00 0.00 97 977.8
20260507191651 22 100 1.6 11.3 0.00 0.00 0.00 97 977.6
20260507191148 23 74 6.4 12.9 0.00 0.00 0.00 96 977.8
20260507190645 23 51 4.8 8.0 0.00 0.00 0.00 97 977.7
20260507190144 23 67 4.8 8.0 0.00 0.00 0.00 97 977.9
20260507185642 23 90 1.6 1.6 0.00 0.00 0.00 96 977.8
20260507185138 23 55 3.2 4.8 0.00 0.00 0.00 94 978.0
20260507184636 23 231 0.0 0.0 0.00 0.00 0.00 92 977.7
20260507184134 23 231 0.0 0.0 0.00 0.00 0.00 92 977.7
20260507183630 23 230 0.0 0.0 0.00 0.00 0.00 93 977.6
20260507183127 23 231 0.0 0.0 0.00 0.00 0.00 93 978.0
20260507182623 23 47 1.6 1.6 0.00 0.00 0.00 92 977.8
20260507182120 23 226 0.0 0.0 0.00 0.00 0.00 94 977.6
20260507181616 24 228 0.0 0.0 0.00 0.00 0.00 95 977.6
20260507181113 24 104 3.2 3.2 0.00 0.00 0.00 95 977.7
20260507180609 24 152 0.0 1.6 0.00 0.00 0.00 94 977.8
20260507180106 24 61 1.6 3.2 0.00 0.00 0.00 94 977.7
20260507175602 24 126 1.6 3.2 0.00 0.00 0.00 93 977.8
20260507175100 24 82 4.8 8.0 0.00 0.00 0.00 93 977.5
20260507174557 25 79 3.2 9.7 0.00 0.00 0.00 92 977.1
20260507174054 25 104 1.6 9.7 0.00 0.00 0.00 91 977.5
20260507173551 25 104 3.2 8.0 0.00 0.00 0.00 90 977.5
20260507173048 25 128 1.6 4.8 0.00 0.00 0.00 88 977.5
20260507172544 25 108 4.8 9.7 0.00 0.00 0.00 85 977.3
20260507172042 25 160 0.0 8.0 0.00 0.00 0.00 84 977.3
20260507171536 25 64 6.4 14.5 0.00 0.00 0.00 82 977.1
20260507171034 25 52 8.0 14.5 0.00 0.00 0.00 83 977.3
20260507170530 25 260 1.6 1.6 0.00 0.00 0.00 85 977.2
20260507170028 25 229 0.0 3.2 0.00 0.00 0.00 86 977.1
20260507165523 25 224 1.6 1.6 0.00 0.00 0.00 88 976.9
20260507165020 25 239 0.0 1.6 0.00 0.00 0.00 88 976.8
20260507164516 25 223 0.0 0.0 0.00 0.00 0.00 88 976.8
20260507164014 25 197 0.0 0.0 0.00 0.00 0.00 86 976.7
20260507163510 25 116 0.0 1.6 0.00 0.00 0.00 85 976.7
20260507163009 25 212 0.0 0.0 0.00 0.00 0.00 84 976.7
20260507162503 25 278 0.0 1.6 0.00 0.00 0.00 85 977.1
20260507162000 25 221 0.0 0.0 0.00 0.00 0.00 84 976.8
20260507161456 25 214 0.0 0.0 0.00 0.00 0.00 84 976.9
20260507160954 25 201 0.0 0.0 0.00 0.00 0.00 84 976.8
20260507160449 25 213 0.0 0.0 0.00 0.00 0.00 85 976.6
20260507155945 26 210 0.0 0.0 0.00 0.00 0.00 85 976.7
20260507155441 26 229 0.0 0.0 0.00 0.00 0.00 85 976.5
20260507154939 26 216 0.0 0.0 0.00 0.00 0.00 84 976.6
20260507154435 26 215 0.0 0.0 0.00 0.00 0.00 86 976.5
20260507153932 26 227 0.0 0.0 0.00 0.00 0.00 85 976.6
20260507153429 26 212 0.0 0.0 0.00 0.00 0.00 85 976.7
20260507152925 27 197 0.0 0.0 0.00 0.00 0.00 84 976.7
20260507152422 27 177 0.0 0.0 0.00 0.00 0.00 85 976.6
20260507151917 26 163 1.6 1.6 0.00 0.00 0.00 85 976.5
20260507151414 26 182 0.0 1.6 0.00 0.00 0.00 85 976.5
20260507150911 26 156 3.2 4.8 0.00 0.00 0.00 85 976.4
20260507150408 26 196 0.0 0.0 0.00 0.00 0.00 86 976.3
20260507145904 26 215 0.0 0.0 0.00 0.00 0.00 87 976.1
20260507145400 26 212 0.0 0.0 0.00 0.00 0.00 87 976.0
20260507144857 26 220 0.0 0.0 0.00 0.00 0.00 86 975.7
20260507144355 26 211 0.0 0.0 0.00 0.00 0.00 86 975.5
20260507143851 26 205 0.0 0.0 0.00 0.00 0.00 86 975.4
20260507143349 26 203 0.0 0.0 0.00 0.00 0.00 86 975.2
20260507142845 26 215 0.0 0.0 0.00 0.00 0.00 86 975.2
20260507142341 26 213 0.0 0.0 0.00 0.00 0.00 86 975.0
20260507141838 26 200 0.0 0.0 0.00 0.00 0.00 86 975.3
20260507141335 26 225 0.0 0.0 0.00 0.00 0.00 87 974.8
20260507140831 26 215 0.0 0.0 0.00 0.00 0.00 87 974.3
20260507140328 26 219 0.0 0.0 0.00 0.00 0.00 87 974.2
20260507135826 26 215 0.0 0.0 0.00 0.00 0.00 89 974.3
20260507135322 26 214 0.0 0.0 0.00 0.00 0.00 90 974.4
20260507134820 26 215 0.0 0.0 0.00 0.00 0.00 90 974.1
20260507134316 26 224 0.0 0.0 0.00 0.00 0.00 92 973.9
20260507133812 26 212 0.0 0.0 0.00 0.00 0.00 92 974.1
20260507133308 27 212 0.0 0.0 0.00 0.00 0.00 92 974.3
20260507132806 27 219 0.0 0.0 0.00 0.00 0.00 92 974.1
20260507132306 27 221 0.0 0.0 0.00 0.00 0.00 92 973.8
20260507131759 27 218 0.0 0.0 0.00 0.00 0.00 92 973.9
20260507131256 27 205 0.0 0.0 0.00 0.00 0.00 93 974.0
20260507130753 27 207 0.0 0.0 0.00 0.00 0.00 92 973.9
20260507130250 27 219 0.0 0.0 0.00 0.00 0.00 92 973.9
20260507125749 27 226 0.0 0.0 0.00 0.00 0.00 92 974.0
20260507125246 27 226 0.0 0.0 0.00 0.00 0.00 92 974.1
20260507124743 27 226 0.0 0.0 0.00 0.00 0.00 92 973.8
20260507124240 27 226 0.0 0.0 0.00 0.00 0.00 92 974.0
20260507123738 27 226 0.0 0.0 0.00 0.00 0.00 91 973.9
20260507123235 27 226 0.0 0.0 0.00 0.00 0.00 92 973.8
20260507122730 27 223 0.0 0.0 0.00 0.00 0.00 92 973.8
20260507122227 27 218 0.0 0.0 0.00 0.00 0.00 91 973.7
20260507121722 27 211 0.0 0.0 0.00 0.00 0.00 92 973.5
20260507121218 27 218 0.0 0.0 0.00 0.00 0.00 91 973.5
20260507120715 27 218 0.0 0.0 0.00 0.00 0.00 91 972.9
20260507120212 27 218 0.0 0.0 0.00 0.00 0.00 91 973.0
20260507115708 27 219 0.0 0.0 0.00 0.00 0.00 91 972.8
20260507115204 27 219 0.0 0.0 0.00 0.00 0.00 91 972.8
20260507114659 27 212 0.0 0.0 0.00 0.00 0.00 90 972.5
20260507114157 27 210 0.0 0.0 0.00 0.00 0.00 89 972.5
20260507113654 27 215 0.0 0.0 0.00 0.00 0.00 89 972.4
20260507113151 27 215 0.0 0.0 0.00 0.00 0.00 90 972.3
20260507112649 28 216 0.0 0.0 0.00 0.00 0.00 89 972.3
20260507112145 28 211 0.0 0.0 0.00 0.00 0.00 90 972.2
20260507111643 28 211 0.0 0.0 0.00 0.00 0.00 89 972.0
20260507111139 28 227 0.0 0.0 0.00 0.00 0.00 89 971.8
20260507110635 28 228 0.0 0.0 0.00 0.00 0.00 88 971.8
20260507110132 28 228 0.0 0.0 0.00 0.00 0.00 89 971.6
20260507105629 28 227 0.0 0.0 0.00 0.00 0.00 88 971.5
20260507105125 28 228 0.0 0.0 0.00 0.00 0.00 88 971.5
20260507104623 28 231 0.0 0.0 0.00 0.00 0.00 88 971.8
20260507104119 28 229 0.0 0.0 0.00 0.00 0.00 88 971.6
20260507103615 28 240 0.0 0.0 0.00 0.00 0.00 88 971.7
20260507103112 27 241 0.0 0.0 0.00 0.00 0.00 87 971.7
20260507102608 27 228 0.0 0.0 0.00 0.00 0.00 90 971.5
20260507102105 27 305 0.0 0.0 0.00 0.00 0.00 97 971.6
20260507101601 26 235 0.0 0.0 0.00 0.00 0.00 98 971.5
20260507101057 26 227 0.0 0.0 0.00 0.00 0.00 99 971.4
20260507100554 26 218 0.0 0.0 0.00 0.00 0.00 99 971.4
20260507100052 26 211 0.0 0.0 0.00 0.00 0.00 99 971.7
20260507095550 27 221 0.0 0.0 0.00 0.00 0.00 99 971.6
20260507095046 26 221 0.0 0.0 0.00 0.00 0.00 99 971.8
20260507094542 27 216 0.0 0.0 0.00 0.00 0.00 99 971.8
20260507094040 27 213 0.0 0.0 0.00 0.00 0.00 99 971.9
20260507093537 28 220 0.0 0.0 0.00 0.00 0.00 99 971.9
20260507093036 28 213 0.0 0.0 0.00 0.00 0.00 97 972.2
20260507092531 28 210 0.0 0.0 0.00 0.00 0.00 96 971.8
20260507092028 28 200 0.0 0.0 0.00 0.00 0.00 91 971.9
20260507091525 29 181 0.0 0.0 0.00 0.00 0.00 87 972.0
20260507091021 31 193 0.0 0.0 0.00 0.00 0.00 83 972.2
20260507090517 32 201 0.0 0.0 0.00 0.00 0.00 77 972.3
20260507090014 33 195 0.0 0.0 0.00 0.00 0.00 71 972.2
20260507085511 33 195 0.0 0.0 0.00 0.00 0.00 65 971.9
20260507085008 33 51 1.6 4.8 0.00 0.00 0.00 62 972.0
20260507084505 33 350 1.6 1.6 0.00 0.00 0.00 63 972.0
20260507084002 33 65 4.8 8.0 0.00 0.00 0.00 62 971.9
20260507083458 33 163 0.0 0.0 0.00 0.00 0.00 63 972.1
20260507082954 33 178 0.0 0.0 0.00 0.00 0.00 62 972.0
20260507082451 33 193 0.0 0.0 0.00 0.00 0.00 61 972.2
20260507081947 33 158 0.0 3.2 0.00 0.00 0.00 63 972.3
20260507081444 33 82 1.6 3.2 0.00 0.00 0.00 63 972.3
20260507080941 33 152 3.2 9.7 0.00 0.00 0.00 63 972.4
20260507080436 33 51 0.0 8.0 0.00 0.00 0.00 64 972.4
20260507075932 33 165 4.8 9.7 0.00 0.00 0.00 63 972.2
20260507075429 33 82 1.6 9.7 0.00 0.00 0.00 64 972.5
20260507074925 33 170 0.0 0.0 0.00 0.00 0.00 63 972.7
20260507074422 33 54 0.0 8.0 0.00 0.00 0.00 63 972.7
20260507073920 33 168 0.0 0.0 0.00 0.00 0.00 63 972.7
20260507073416 33 203 0.0 0.0 0.00 0.00 0.00 64 972.6
20260507072913 33 177 0.0 3.2 0.00 0.00 0.00 65 972.8
20260507072411 33 36 0.0 0.0 0.00 0.00 0.00 63 972.8
20260507071908 34 198 0.0 0.0 0.00 0.00 0.00 61 972.9
20260507071405 34 50 6.4 8.0 0.00 0.00 0.00 64 973.0
20260507070901 34 253 0.0 0.0 0.00 0.00 0.00 66 973.0
20260507070359 34 350 4.8 12.9 0.00 0.00 0.00 63 972.9
20260507065855 35 305 0.0 0.0 0.00 0.00 0.00 61 973.3
20260507065352 34 155 0.0 8.0 0.00 0.00 0.00 65 973.1
20260507064849 33 233 0.0 1.6 0.00 0.00 0.00 66 973.3
20260507064348 34 262 0.0 0.0 0.00 0.00 0.00 64 973.3
20260507063845 34 247 0.0 0.0 0.00 0.00 0.00 63 973.5
20260507063342 35 263 0.0 0.0 0.00 0.00 0.00 63 973.6
20260507062838 35 242 0.0 0.0 0.00 0.00 0.00 63 973.9
20260507062335 34 247 0.0 0.0 0.00 0.00 0.00 63 973.8
20260507061833 33 239 0.0 0.0 0.00 0.00 0.00 64 974.0
20260507061331 34 183 0.0 0.0 0.00 0.00 0.00 64 974.2
20260507060830 34 204 0.0 0.0 0.00 0.00 0.00 63 974.6
20260507060326 34 204 0.0 0.0 0.00 0.00 0.00 65 974.5
20260507055823 33 197 0.0 0.0 0.00 0.00 0.00 64 974.7
20260507055318 34 223 0.0 0.0 0.00 0.00 0.00 64 974.8
20260507054815 34 218 0.0 0.0 0.00 0.00 0.00 62 975.1
20260507054311 34 199 0.0 0.0 0.00 0.00 0.00 63 975.3
20260507053808 34 240 0.0 0.0 0.00 0.00 0.00 63 975.6
20260507053306 33 188 0.0 0.0 0.00 0.00 0.00 63 975.7
20260507052805 33 44 0.0 1.6 0.00 0.00 0.00 63 975.7
20260507052301 34 209 0.0 0.0 0.00 0.00 0.00 63 975.7
20260507051759 33 237 0.0 0.0 0.00 0.00 0.00 64 975.7
20260507051256 34 257 0.0 0.0 0.00 0.00 0.00 67 975.9
20260507050752 33 247 0.0 0.0 0.00 0.00 0.00 69 976.0
20260507050249 33 120 0.0 0.0 0.00 0.00 0.00 68 976.0
20260507045746 32 243 0.0 1.6 0.00 0.00 0.00 69 975.9
20260507045242 33 18 0.0 0.0 0.00 0.00 0.00 68 976.2
20260507044740 32 154 0.0 0.0 0.00 0.00 0.00 68 976.1
20260507044236 33 212 0.0 0.0 0.00 0.00 0.00 69 976.3
20260507043732 32 210 0.0 0.0 0.00 0.00 0.00 70 976.2
20260507043229 33 171 0.0 0.0 0.00 0.00 0.00 65 976.3
20260507042725 33 238 0.0 0.0 0.00 0.00 0.00 69 976.5
20260507042220 33 251 0.0 0.0 0.00 0.00 0.00 67 976.3
20260507041718 32 260 0.0 0.0 0.00 0.00 0.00 69 976.4
20260507041214 32 252 0.0 0.0 0.00 0.00 0.00 71 976.3
20260507040711 32 230 0.0 0.0 0.00 0.00 0.00 71 976.4
20260507040207 32 159 0.0 1.6 0.00 0.00 0.00 71 976.7
20260507035704 32 163 0.0 0.0 0.00 0.00 0.00 70 976.6
20260507035159 32 135 0.0 1.6 0.00 0.00 0.00 72 976.7
20260507034656 32 167 0.0 4.8 0.00 0.00 0.00 71 976.6
20260507034154 32 181 0.0 1.6 0.00 0.00 0.00 71 976.7
20260507033652 32 240 0.0 0.0 0.00 0.00 0.00 72 976.8
20260507033149 31 198 0.0 0.0 0.00 0.00 0.00 71 976.8
20260507032647 32 240 0.0 0.0 0.00 0.00 0.00 71 976.9
20260507032142 32 224 0.0 0.0 0.00 0.00 0.00 71 977.0
20260507031639 31 227 0.0 0.0 0.00 0.00 0.00 72 977.1
20260507031136 31 222 0.0 0.0 0.00 0.00 0.00 71 977.2
20260507030633 31 214 0.0 0.0 0.00 0.00 0.00 72 977.0
20260507030131 32 210 0.0 0.0 0.00 0.00 0.00 70 976.9
20260507025627 32 221 0.0 0.0 0.00 0.00 0.00 71 977.2
20260507025124 32 224 0.0 0.0 0.00 0.00 0.00 71 977.1
20260507024622 31 200 0.0 0.0 0.00 0.00 0.00 76 977.0
20260507024119 30 196 0.0 0.0 0.00 0.00 0.00 75 977.1
20260507023615 30 163 1.6 1.6 0.00 0.00 0.00 75 977.5
20260507023112 31 194 0.0 0.0 0.00 0.00 0.00 73 977.1
20260507022609 31 211 0.0 0.0 0.00 0.00 0.00 72 977.2
20260507022104 31 223 0.0 0.0 0.00 0.00 0.00 72 977.1
20260507021601 32 197 0.0 0.0 0.00 0.00 0.00 70 977.2
20260507021057 31 219 0.0 0.0 0.00 0.00 0.00 74 976.9
20260507020555 31 203 0.0 1.6 0.00 0.00 0.00 74 977.1
20260507020051 31 196 0.0 0.0 0.00 0.00 0.00 77 977.1
20260507015550 30 230 0.0 0.0 0.00 0.00 0.00 76 977.1
20260507015047 30 229 0.0 0.0 0.00 0.00 0.00 77 977.1
20260507014543 30 231 0.0 0.0 0.00 0.00 0.00 78 977.2
20260507014039 30 208 0.0 0.0 0.00 0.00 0.00 79 977.0
20260507013536 30 34 0.0 0.0 0.00 0.00 0.00 79 977.2
20260507013033 27 231 0.0 0.0 0.00 0.00 0.00 85 977.0
20260507012530 27 231 0.0 0.0 0.00 0.00 0.00 85 977.1
20260507012026 27 231 0.0 0.0 0.00 0.00 0.00 85 977.1
20260507011524 27 231 0.0 0.0 0.00 0.00 0.00 85 977.2
20260507011020 27 248 0.0 0.0 0.00 0.00 0.00 86 977.1